Printer-friendly version
Follow the MPC on Twitter Follow the MPC on Facebook The MPC blog
Minor Planet Center

MPEC 2006-X03 : 2006 WZ184

The following Minor Planet Electronic Circular may be linked-to from your own Web pages, but must not otherwise be redistributed electronically.

A form allowing access to any MPEC is at the bottom of this page.


Read MPEC 2006-X02 Read MPEC 2006-X04


M.P.E.C. 2006-X03                                Issued 2006 Dec. 1, 13:53 UT

     The Minor Planet Electronic Circulars contain information on unusual
         minor planets and routine data on comets.  They are published
   on behalf of Commission 20 of the International Astronomical Union by the
          Minor Planet Center, Smithsonian Astrophysical Observatory,
                          Cambridge, MA 02138, U.S.A.

             Prepared using the Tamkin Foundation Computer Network

                              MPC@CFA.HARVARD.EDU
          URL http://cfa-www.harvard.edu/iau/mpc.html  ISSN 1523-6714

                                  2006 WZ184

Observations:
     K06WI4Z* C2006 11 28.19260 00 55 32.63 +10 32 32.7          18.6   EX003704
     K06WI4Z  C2006 11 28.20546 00 56 14.67 +10 35 56.5          19.1   EX003704
     K06WI4Z  C2006 11 28.21832 00 56 56.68 +10 39 18.9          18.7   EX003704
     K06WI4Z  C2006 11 28.23121 00 57 38.81 +10 42 38.9          18.7   EX003704
     K06WI4Z  C2006 12 01.13708 02 59 08.91 +17 56 31.8          18.8 V EX003G96
     K06WI4Z  C2006 12 01.14286 02 59 17.84 +17 56 56.9          18.7 V EX003G96
     K06WI4Z  C2006 12 01.14848 02 59 26.55 +17 57 21.6          18.4 V EX003G96
     K06WI4Z  C2006 12 01.15410 02 59 35.23 +17 57 45.7          18.8 V EX003G96
     K06WI4Z  C2006 12 01.26329 03 02 19.32 +18 05 04.7          19.0 V EX003G96
     K06WI4Z  C2006 12 01.26677 03 02 24.46 +18 05 17.4          18.9 V EX003G96
     K06WI4Z  C2006 12 01.27021 03 02 29.50 +18 05 30.2          18.7 V EX003G96
     K06WI4Z  C2006 12 01.27363 03 02 34.58 +18 05 42.5          18.8 V EX003G96

Observer details:
704 Lincoln Laboratory ETS, New Mexico.  Observers M. Bezpalko, D. Torres,
    R. Kracke, G. Spitz, J. Kistler.  Measurers J. Stuart, S. Scruggs.  1.0-m
    f/2.15 reflector + CCD.
G96 Mt. Lemmon Survey.  Observer E. C. Beshore.  Measurers E. C. Beshore,
    E. J. Christensen, G. J. Garradd, A. R. Gibbs, A. D. Grauer, R. E. Hill,
    R. A. Kowalski, S. M. Larson, R. H. McNaught.  1.5-m reflector + CCD.

Orbital elements:
2006 WZ184                                               Earth MOID = 0.0019 AU
Epoch 2006 Sept. 22.0 TT = JDT 2454000.5                MPC
M 342.65352              (2000.0)            P               Q
n   0.61996983     Peri.  127.30291     +0.95573557     -0.29390638
a   1.3621419      Node   249.79271     +0.26510679     +0.88045041
e   0.3273835      Incl.    0.83842     +0.12762413     +0.37205661
P   1.59           H   25.7           G   0.15           U   7
Residuals in seconds of arc
061128 704  0.0   0.2-    061201 G96  0.2+  0.1+    061201 G96  0.1+  0.2+
061128 704  0.0   0.2+    061201 G96  0.3-  0.2-    061201 G96  0.1+  0.0
061128 704  0.2-  0.6+    061201 G96  0.0   0.1+    061201 G96  0.4-  0.1+
061128 704  0.2+  0.6-    061201 G96  0.2+  0.2-    061201 G96  0.1+  0.1-

Ephemeris:
2006 WZ184               a,e,i = 1.36, 0.33, 1                   q = 0.9162
Date    TT    R. A. (2000) Decl.     Delta      r     Elong.  Phase     V
2006 12 01    02 55.05   +17 48.7    0.0239   1.008   158.0    21.5    18.7
2006 12 03    03 39.61   +19 20.1    0.0314   1.016   166.6    13.0    19.0
2006 12 05    04 06.87   +19 55.8    0.0396   1.025   170.9     8.8    19.3
2006 12 07    04 24.76   +20 11.0    0.0483   1.033   172.9     6.7    19.7
2006 12 09    04 37.26   +20 17.9    0.0572   1.042   173.7     5.9    20.0
2006 12 11    04 46.40   +20 21.1    0.0663   1.051   173.8     5.9    20.4
2006 12 13    04 53.36   +20 22.8    0.0757   1.060   173.3     6.2    20.7
2006 12 15    04 58.83   +20 23.9    0.0853   1.069   172.6     6.9    21.0
2006 12 17    05 03.26   +20 24.8    0.0951   1.078   171.6     7.7    21.3
2006 12 19    05 06.94   +20 25.7    0.105    1.088   170.4     8.7    21.6
2006 12 21    05 10.07   +20 26.8    0.115    1.097   169.1     9.7    21.8

Timothy B. Spahr             (C) Copyright 2006 MPC           M.P.E.C. 2006-X03

Read MPEC 2006-X02 Read MPEC 2006-X04


MPEC number:

Enter an MPEC number in one of the following forms:

  • 1997-B01 (the full form)
  • J97B01 (the packed version of the full form)
  • B01 (the abbreviated form)

Valid HTML 4.01!